Content
SEND FEEDBACK

Daily
Averages
Monthly
Summary
China

KASHI, CHINA


Home > Asia > China
Elevation: 4236 feet     Latitude: 39 28N     Longitude: 075 58E

WEATHER
 
SELECT A DAY
Number of Records: 109,139;   Date Range: 7/6/03 - 7/20/14
 
SHARE

PRINT THIS DATA

[ ← Previous Day ]
WEATHER ALMANAC - MARCH 1, 2013
[ Next Day → ]
[ °C ]   °F
Weather ElementAverageHighLow
Temperature41.1 °F53 °F (5:00 pm)29 °F (8:00 am)
Dewpoint14.2 °F22 °F (5:00 am)10.4 °F (1:00 pm)
Humidity33.1 %62 % (8:00 am)9 % (5:00 pm)
Barometer30.25 in30.42 in (11:00 am)30.12 in (12:30 am)
Wind Speed6.2 mph11.2 mph (2:30 am)
Weather ElementAverage
Visibility6 mi
Wind DirectionSSW (218.6 °)

Weather ElementTotal
Precipitation---
Heating Degree Days24 (Base 65)
Averaged from 37 records on March 1, 2013
WEATHER CONDITIONS BREAKOUT
WIND DIRECTION BREAKOUT
WEATHER BY HOUR - MARCH 1, 2013
[ °C ]   °F
Local TimeTemperatureDewpointHumidityBarometerVisibilityWind DirectionWind SpeedGust SpeedPrecipitationEventsConditions
12:30 AM37.4 °F15.8 °F41 %30.12 in5.0 miNNW (340°)8.9 mph
1:00 AM37.4 °F12.2 °F36 %30.15 in5.0 miNNW (330°)8.9 mph
1:30 AM37.4 °F12.2 °F36 %30.15 in5.0 miNNW (330°)8.9 mph
2:00 AM33.0 °F19.0 °F42 %30.26 in7.0 miWSW (250°)2.2 mphClear
2:00 AM37.4 °F14.0 °F38 %30.15 in5.0 miNNW (330°)8.9 mph
2:30 AM37.4 °F14.0 °F38 %30.15 in5.0 miNNW (330°)11.2 mph
3:00 AM37.4 °F14.0 °F38 %30.15 in5.0 miNNW (330°)8.9 mph
3:30 AM37.4 °F14.0 °F38 %30.18 in5.6 miNNW (330°)8.9 mph
4:00 AM37.4 °F15.8 °F41 %30.18 in5.6 miNNW (330°)8.9 mph
4:30 AM37.4 °F15.8 °F41 %30.18 in5.6 miNNW (330°)11.2 mph
5:00 AM32.0 °F22.0 °F54 %30.27 in7.0 miSW (220°)2.2 mphScattered Clouds
5:00 AM37.4 °F14.0 °F38 %30.18 in5.6 miNNW (330°)8.9 mph
5:30 AM37.4 °F14.0 °F38 %30.18 in5.6 miNNW (330°)11.2 mph
6:00 AM37.4 °F15.8 °F41 %30.18 in5.0 miNNW (330°)8.9 mph
7:00 AM35.6 °F15.8 °F44 %30.21 in5.0 miNNW (330°)8.9 mph
8:00 AM29.0 °F21.0 °F62 %30.34 in7.0 miWSW (250°)2.2 mphClear
8:00 AM35.6 °F15.8 °F44 %30.21 in5.0 miNNW (330°)11.2 mph
9:00 AM33.8 °F14.0 °F44 %30.24 in5.0 miNNW (330°)11.2 mph
10:00 AM33.8 °F14.0 °F44 %30.24 in5.0 miNNW (330°)11.2 mph
11:00 AM33.0 °F21.0 °F50 %30.42 in9.0 miWSW (250°)2.2 mphClear
11:00 AM39.2 °F14.0 °F36 %30.27 in5.0 miNNW (330°)8.9 mph
12:00 PM42.8 °F12.2 °F29 %30.30 in5.0 miVariable4.5 mph
1:00 PM44.6 °F10.4 °F25 %30.33 in5.0 miEast (90°)4.5 mph
2:00 PM48.0 °F14.0 °F14 %30.40 in12.0 miSW (220°)2.2 mphClear
2:00 PM46.4 °F12.2 °F25 %30.33 in4.3 miVariable4.5 mph
3:00 PM48.2 °F12.2 °F24 %30.30 in4.3 miCalm
4:00 PM50.0 °F12.2 °F22 %30.27 in4.3 miSouth (180°)4.5 mph
5:00 PM50.0 °F10.4 °F20 %30.24 in5.0 miVariable4.5 mph
5:00 PM53.0 °F12.0 °F9 %30.31 in12.0 miSSW (200°)6.7 mphClear
6:00 PM51.8 °F12.2 °F21 %30.24 in5.0 miESE (120°)6.7 mph
7:00 PM50.0 °F10.4 °F20 %30.24 in5.0 miVariable4.5 mph
8:00 PM51.0 °F12.0 °F11 %30.34 in12.0 miSSE (160°)2.2 mphClear
8:00 PM50.0 °F10.4 °F20 %30.27 in5.0 miSE (130°)4.5 mph
9:00 PM48.2 °F12.2 °F24 %30.27 in5.0 miESE (110°)2.2 mph
10:00 PM46.4 °F14.0 °F27 %30.30 in5.0 miENE (70°)4.5 mph
11:00 PM43.0 °F15.0 °F19 %30.41 in9.0 miCalmClear
11:00 PM44.6 °F14.0 °F29 %30.30 in5.0 miCalm
Hourly data recorded from ZWSH, located miles away from Kashi, China







STORIES FROM OUR PARTNERS